Location: Kitchener
(43.4500°N, 80.5000°W)
Time: 04:54:10
(UTC-04:00)

ATLAS 5 CENTAUR R/B - Visible Passes

Search period start: 22 April 2018 00:00
Search period end: 02 May 2018 00:00
Orbit: 600 x 1060 km, 63.4° (Epoch: 20 April)

Date Brightness Start Highest point End Pass type
(mag) Time Alt. Az. Time Alt. Az. Time Alt. Az.
22 Apr 4.4 01:33:57 10° WNW 01:35:41 17° WNW 01:35:41 17° WNW visible
22 Apr 4.2 21:45:50 10° NNW 21:49:40 18° NNE 21:53:48 10° ENE visible
22 Apr 2.5 23:29:35 10° NNW 23:35:26 63° NE 23:35:40 63° ENE visible
23 Apr 4.2 01:14:51 10° WNW 01:17:13 20° WNW 01:17:13 20° WNW visible
23 Apr 4.3 21:26:52 10° NNW 21:30:36 17° NNE 21:34:36 10° ENE visible
23 Apr 2.6 23:10:35 10° NNW 23:16:25 60° NE 23:17:14 55° E visible
24 Apr 4.0 00:55:46 10° WNW 00:58:46 24° W 00:58:46 24° W visible
24 Apr 4.3 21:07:54 10° N 21:11:31 17° NNE 21:15:23 10° ENE visible
24 Apr 2.7 22:51:35 10° NNW 22:57:23 57° NE 22:58:49 47° E visible
25 Apr 3.8 00:36:41 10° NW 00:40:22 27° W 00:40:22 27° W visible
25 Apr 4.3 20:48:55 10° N 20:52:26 16° NNE 20:56:10 10° ENE visible
25 Apr 2.7 22:32:35 10° NNW 22:38:21 54° NE 22:40:27 38° ESE visible
26 Apr 3.6 00:17:36 10° NW 00:22:00 31° W 00:22:00 31° W visible
26 Apr 2.8 22:13:35 10° NNW 22:19:18 52° NE 22:22:08 31° ESE visible
26 Apr 3.4 23:58:32 10° NW 00:03:41 34° WSW 00:03:41 34° WSW visible
27 Apr 2.9 21:54:35 10° NNW 22:00:17 49° NE 22:03:51 25° ESE visible
27 Apr 3.3 23:39:27 10° NW 23:44:58 36° WSW 23:45:24 36° SW visible
28 Apr 2.9 21:35:36 10° NNW 21:41:15 47° NE 21:45:37 19° ESE visible
28 Apr 3.3 23:20:24 10° NW 23:25:58 39° WSW 23:27:10 35° SW visible
29 Apr 3.0 21:16:36 10° NNW 21:22:12 45° NE 21:27:26 14° ESE visible
29 Apr 3.3 23:01:20 10° NW 23:06:58 41° WSW 23:09:00 32° SSW visible
30 Apr 3.1 20:57:36 10° NNW 21:03:10 43° NE 21:09:18 10° ESE visible
30 Apr 3.2 22:42:17 10° NW 22:47:58 43° WSW 22:50:52 28° S visible
01 May 3.2 22:23:14 10° NW 22:28:58 46° WSW 22:32:48 22° S visible
